Year,Month,Day,Hour,Minute,Value (Times are PST for temperature in C)
2009,03,27,15,14,9.00
2009,03,27,15,15,9.10
2009,03,27,15,16,9.30
2009,03,27,15,17,9.50
2009,03,27,15,18,9.80
2009,03,27,15,19,10.00
2009,03,27,15,20,10.30
2009,03,27,15,21,10.40
2009,03,27,15,22,10.50
2009,03,27,15,23,10.60
2009,03,27,15,24,10.70
2009,03,27,15,25,10.70
2009,03,27,15,26,10.80
2009,03,27,15,27,10.90
2009,03,27,15,28,11.00
2009,03,27,15,29,11.00
2009,03,27,15,30,11.10
2009,03,27,15,31,11.20
2009,03,27,15,32,11.20
2009,03,27,15,33,11.10
2009,03,27,15,34,11.00
2009,03,27,15,35,10.90
2009,03,27,15,36,10.80
2009,03,27,15,37,10.80
2009,03,27,15,38,10.70
2009,03,27,15,39,10.60
2009,03,27,15,40,10.60
2009,03,27,15,41,10.50
2009,03,27,15,42,10.40
2009,03,27,15,43,10.40
2009,03,27,15,44,10.40
2009,03,27,15,45,10.30
2009,03,27,15,46,10.30
2009,03,27,15,47,10.30
2009,03,27,15,48,10.20
2009,03,27,15,49,10.20
2009,03,27,15,50,10.20
2009,03,27,15,51,10.30
2009,03,27,15,52,10.30
2009,03,27,15,53,10.40
2009,03,27,15,54,10.40
2009,03,27,15,55,10.40
2009,03,27,15,56,10.30
2009,03,27,15,57,10.30
2009,03,27,15,58,10.30
2009,03,27,15,59,10.30
2009,03,27,16,00,10.20
2009,03,27,16,01,10.00
2009,03,27,16,02,9.90
2009,03,27,16,03,9.80
2009,03,27,16,04,9.70
2009,03,27,16,05,9.60
2009,03,27,16,06,9.60
2009,03,27,16,07,9.60
2009,03,27,16,08,9.60
2009,03,27,16,09,9.70
2009,03,27,16,10,9.70
2009,03,27,16,11,9.70
2009,03,27,16,12,9.70
2009,03,27,16,13,9.70
2009,03,27,16,14,9.70
2009,03,27,16,15,9.80
2009,03,27,16,16,9.80
2009,03,27,16,17,9.90
2009,03,27,16,18,9.90
2009,03,27,16,19,9.90
2009,03,27,16,20,10.00
2009,03,27,16,21,10.10
2009,03,27,16,22,10.00
2009,03,27,16,23,9.90
2009,03,27,16,24,9.80
2009,03,27,16,25,9.80
2009,03,27,16,26,9.70
2009,03,27,16,27,9.70
2009,03,27,16,28,9.70
2009,03,27,16,29,9.70
2009,03,27,16,30,9.70
2009,03,27,16,31,9.70
2009,03,27,16,32,9.80
2009,03,27,16,33,9.80
2009,03,27,16,34,9.80
2009,03,27,16,35,9.70
2009,03,27,16,36,9.70
2009,03,27,16,37,9.60
2009,03,27,16,38,9.60
2009,03,27,16,39,9.60
2009,03,27,16,40,9.60
2009,03,27,16,41,9.60
2009,03,27,16,42,9.60
2009,03,27,16,43,9.70
2009,03,27,16,44,9.70
2009,03,27,16,45,9.80
2009,03,27,16,46,9.80
2009,03,27,16,47,9.90
2009,03,27,16,48,9.90
2009,03,27,16,49,9.90
2009,03,27,16,50,9.90
2009,03,27,16,51,9.90
2009,03,27,16,52,9.80
2009,03,27,16,53,9.80
2009,03,27,16,54,9.70
2009,03,27,16,55,9.70
2009,03,27,16,56,9.70
2009,03,27,16,57,9.70
2009,03,27,16,58,9.60
2009,03,27,16,59,9.60
2009,03,27,17,00,9.60
2009,03,27,17,01,9.60
2009,03,27,17,02,9.60
2009,03,27,17,03,9.60
2009,03,27,17,04,9.50
2009,03,27,17,05,9.40
2009,03,27,17,06,9.30
2009,03,27,17,07,9.20
2009,03,27,17,08,9.20
2009,03,27,17,09,9.20
2009,03,27,17,10,9.20
2009,03,27,17,11,9.10
2009,03,27,17,12,9.10
2009,03,27,17,13,9.10
2009,03,27,17,14,9.10
2009,03,27,17,15,9.20
2009,03,27,17,16,9.20
2009,03,27,17,17,9.20
2009,03,27,17,18,9.10
2009,03,27,17,19,9.10
2009,03,27,17,20,9.00
2009,03,27,17,21,9.00
2009,03,27,17,22,8.90
2009,03,27,17,23,8.80
2009,03,27,17,24,8.70
2009,03,27,17,25,8.70
2009,03,27,17,26,8.70
2009,03,27,17,27,8.70
2009,03,27,17,28,8.70
2009,03,27,17,29,8.70
2009,03,27,17,30,8.70
2009,03,27,17,31,8.70
2009,03,27,17,32,8.70
2009,03,27,17,33,8.70
2009,03,27,17,34,8.60
2009,03,27,17,35,8.60
2009,03,27,17,36,8.50
2009,03,27,17,37,8.50
2009,03,27,17,38,8.40
2009,03,27,17,39,8.40
2009,03,27,17,40,8.30
2009,03,27,17,41,8.30
2009,03,27,17,42,8.30
2009,03,27,17,43,8.30
2009,03,27,17,44,8.30
2009,03,27,17,45,8.20
2009,03,27,17,46,8.20
2009,03,27,17,47,8.20
2009,03,27,17,48,8.10
2009,03,27,17,49,8.10
2009,03,27,17,50,8.10
2009,03,27,17,51,8.00
2009,03,27,17,52,8.00
2009,03,27,17,53,7.90
2009,03,27,17,54,7.90
2009,03,27,17,55,7.80
2009,03,27,17,56,7.80
2009,03,27,17,57,7.80
2009,03,27,17,58,7.70
2009,03,27,17,59,7.70
2009,03,27,18,00,7.70
2009,03,27,18,01,7.70
2009,03,27,18,02,7.70
2009,03,27,18,03,7.70
2009,03,27,18,04,7.60
2009,03,27,18,05,7.60
2009,03,27,18,06,7.60
2009,03,27,18,07,7.60
2009,03,27,18,08,7.60
2009,03,27,18,09,7.60
2009,03,27,18,10,7.60
2009,03,27,18,11,7.60
2009,03,27,18,12,7.50
2009,03,27,18,13,7.50
2009,03,27,18,14,7.50
2009,03,27,18,15,7.50
2009,03,27,18,16,7.50
2009,03,27,18,17,7.40
2009,03,27,18,18,7.40
2009,03,27,18,19,7.40
2009,03,27,18,20,7.40
2009,03,27,18,21,7.40
2009,03,27,18,22,7.30
2009,03,27,18,23,7.30
2009,03,27,18,24,7.30
2009,03,27,18,25,7.30
2009,03,27,18,26,7.30
2009,03,27,18,27,7.30
2009,03,27,18,28,7.30
2009,03,27,18,29,7.30
2009,03,27,18,30,7.20
2009,03,27,18,31,7.20
2009,03,27,18,32,7.20
2009,03,27,18,33,7.20
2009,03,27,18,34,7.20
2009,03,27,18,35,7.20
2009,03,27,18,36,7.20
2009,03,27,18,37,7.20
2009,03,27,18,38,7.10
2009,03,27,18,39,7.10
2009,03,27,18,40,7.10
2009,03,27,18,41,7.10
2009,03,27,18,42,7.10
2009,03,27,18,43,7.00
2009,03,27,18,44,7.00
2009,03,27,18,45,7.00
2009,03,27,18,46,6.90
2009,03,27,18,47,6.90
2009,03,27,18,48,6.90
2009,03,27,18,49,6.90
2009,03,27,18,50,6.80
2009,03,27,18,51,6.80
2009,03,27,18,52,6.80
2009,03,27,18,53,6.80
2009,03,27,18,54,6.80
2009,03,27,18,55,6.80
2009,03,27,18,56,6.80
2009,03,27,18,57,6.80
2009,03,27,18,58,6.70
2009,03,27,18,59,6.70
2009,03,27,19,00,6.70
2009,03,27,19,01,6.70
2009,03,27,19,02,6.70
2009,03,27,19,03,6.70
2009,03,27,19,04,6.70
2009,03,27,19,05,6.70
2009,03,27,19,06,6.70
2009,03,27,19,07,6.60
2009,03,27,19,08,6.60
2009,03,27,19,09,6.60
2009,03,27,19,10,6.60
2009,03,27,19,11,6.60
2009,03,27,19,12,6.60
2009,03,27,19,13,6.50
2009,03,27,19,14,6.50
2009,03,27,19,15,6.50
2009,03,27,19,16,6.50
2009,03,27,19,17,6.40
2009,03,27,19,18,6.40
2009,03,27,19,19,6.40
2009,03,27,19,20,6.40
2009,03,27,19,21,6.40
2009,03,27,19,22,6.40
2009,03,27,19,23,6.40
2009,03,27,19,24,6.40
2009,03,27,19,25,6.30
2009,03,27,19,26,6.30
2009,03,27,19,27,6.30
2009,03,27,19,28,6.30
2009,03,27,19,29,6.30
2009,03,27,19,30,6.30
2009,03,27,19,31,6.30
2009,03,27,19,32,6.30
2009,03,27,19,33,6.30
2009,03,27,19,34,6.30
2009,03,27,19,35,6.30
2009,03,27,19,36,6.30
2009,03,27,19,37,6.30
2009,03,27,19,38,6.30
2009,03,27,19,39,6.30
2009,03,27,19,40,6.30
2009,03,27,19,41,6.30
2009,03,27,19,42,6.30
2009,03,27,19,43,6.30
2009,03,27,19,44,6.30
2009,03,27,19,45,6.30
2009,03,27,19,46,6.30
2009,03,27,19,47,6.30
2009,03,27,19,48,6.30
2009,03,27,19,49,6.30
2009,03,27,19,50,6.30
2009,03,27,19,51,6.30
2009,03,27,19,52,6.30
2009,03,27,19,53,6.30
2009,03,27,19,54,6.30
2009,03,27,19,55,6.30
2009,03,27,19,56,6.30
2009,03,27,19,57,6.30
2009,03,27,19,58,6.30
2009,03,27,19,59,6.30
2009,03,27,20,00,6.30
2009,03,27,20,01,6.30
2009,03,27,20,02,6.30
2009,03,27,20,03,6.30
2009,03,27,20,04,6.30
2009,03,27,20,05,6.30
2009,03,27,20,06,6.30
2009,03,27,20,07,6.30
2009,03,27,20,08,6.30
2009,03,27,20,09,6.30
2009,03,27,20,10,6.30
2009,03,27,20,11,6.30
2009,03,27,20,12,6.30
2009,03,27,20,13,6.30
2009,03,27,20,14,6.30
2009,03,27,20,15,6.30
2009,03,27,20,16,6.20
2009,03,27,20,17,6.30
2009,03,27,20,18,6.30
2009,03,27,20,19,6.20
2009,03,27,20,20,6.20
2009,03,27,20,21,6.20
2009,03,27,20,22,6.20
2009,03,27,20,23,6.20
2009,03,27,20,24,6.20
2009,03,27,20,25,6.20
2009,03,27,20,26,6.20
2009,03,27,20,27,6.20
2009,03,27,20,28,6.20
2009,03,27,20,29,6.20
2009,03,27,20,30,6.20
2009,03,27,20,31,6.20
2009,03,27,20,32,6.20
2009,03,27,20,33,6.20
2009,03,27,20,34,6.20
2009,03,27,20,35,6.20
2009,03,27,20,36,6.20
2009,03,27,20,37,6.20
2009,03,27,20,38,6.20
2009,03,27,20,39,6.20
2009,03,27,20,40,6.20
2009,03,27,20,41,6.10
2009,03,27,20,42,6.10
2009,03,27,20,43,6.10
2009,03,27,20,44,6.10
2009,03,27,20,45,6.10
2009,03,27,20,46,6.10
2009,03,27,20,47,6.10
2009,03,27,20,48,6.10
2009,03,27,20,49,6.10
2009,03,27,20,50,6.10
2009,03,27,20,51,6.10
2009,03,27,20,52,6.10
2009,03,27,20,53,6.10
2009,03,27,20,54,6.10
2009,03,27,20,55,6.10
2009,03,27,20,56,6.10
2009,03,27,20,57,6.10
2009,03,27,20,58,6.10
2009,03,27,20,59,6.00
2009,03,27,21,00,6.00
2009,03,27,21,01,6.00
2009,03,27,21,02,6.00
2009,03,27,21,03,6.00
2009,03,27,21,04,6.00
2009,03,27,21,05,6.00
2009,03,27,21,06,6.00
2009,03,27,21,07,6.00
2009,03,27,21,08,6.00
2009,03,27,21,09,6.00
2009,03,27,21,10,6.00
2009,03,27,21,11,6.00
2009,03,27,21,12,5.90
2009,03,27,21,13,5.90
2009,03,27,21,14,5.90
2009,03,27,21,15,5.90
2009,03,27,21,16,5.90
2009,03,27,21,17,5.90
2009,03,27,21,18,5.90
2009,03,27,21,19,5.90
2009,03,27,21,20,5.90
2009,03,27,21,21,5.90
2009,03,27,21,22,5.90
2009,03,27,21,23,5.90
2009,03,27,21,24,5.90
2009,03,27,21,25,5.90
2009,03,27,21,26,5.90
2009,03,27,21,27,5.90
2009,03,27,21,28,5.90
2009,03,27,21,29,5.90
2009,03,27,21,30,5.90
2009,03,27,21,31,5.90
2009,03,27,21,32,5.90
2009,03,27,21,33,5.90
2009,03,27,21,34,5.90
2009,03,27,21,35,5.90
2009,03,27,21,36,5.90
2009,03,27,21,37,5.90
2009,03,27,21,38,5.90
2009,03,27,21,39,5.90
2009,03,27,21,40,5.90
2009,03,27,21,41,5.90
2009,03,27,21,42,5.90
2009,03,27,21,43,5.90
2009,03,27,21,44,5.90
2009,03,27,21,45,5.90
2009,03,27,21,46,5.90
2009,03,27,21,47,5.90
2009,03,27,21,48,5.90
2009,03,27,21,49,5.80
2009,03,27,21,50,5.80
2009,03,27,21,51,5.80
2009,03,27,21,52,5.80
2009,03,27,21,53,5.80
2009,03,27,21,54,5.80
2009,03,27,21,55,5.80
2009,03,27,21,56,5.80
2009,03,27,21,57,5.80
2009,03,27,21,58,5.80
2009,03,27,21,59,5.80
2009,03,27,22,00,5.80
2009,03,27,22,01,5.80
2009,03,27,22,02,5.80
2009,03,27,22,03,5.80
2009,03,27,22,04,5.80
2009,03,27,22,05,5.80
2009,03,27,22,06,5.80
2009,03,27,22,07,5.80
2009,03,27,22,08,5.80
2009,03,27,22,09,5.80
2009,03,27,22,10,5.80
2009,03,27,22,11,5.80
2009,03,27,22,12,5.80
2009,03,27,22,13,5.80
2009,03,27,22,14,5.80
2009,03,27,22,15,5.80
2009,03,27,22,16,5.80
2009,03,27,22,17,5.80
2009,03,27,22,18,5.80
2009,03,27,22,19,5.80
2009,03,27,22,20,5.80
2009,03,27,22,21,5.80
2009,03,27,22,22,5.80
2009,03,27,22,23,5.80
2009,03,27,22,24,5.80
2009,03,27,22,25,5.80
2009,03,27,22,26,5.80
2009,03,27,22,27,5.80
2009,03,27,22,28,5.80
2009,03,27,22,29,5.80
2009,03,27,22,30,5.80
2009,03,27,22,31,5.80
2009,03,27,22,32,5.80
2009,03,27,22,33,5.80
2009,03,27,22,34,5.80
2009,03,27,22,35,5.80
2009,03,27,22,36,5.80
2009,03,27,22,37,5.80
2009,03,27,22,38,5.80
2009,03,27,22,39,5.80
2009,03,27,22,40,5.80
2009,03,27,22,41,5.80
2009,03,27,22,42,5.80
2009,03,27,22,43,5.80
2009,03,27,22,44,5.80
2009,03,27,22,45,5.80
2009,03,27,22,46,5.80
2009,03,27,22,47,5.80
2009,03,27,22,48,5.80
2009,03,27,22,49,5.70
2009,03,27,22,50,5.70
2009,03,27,22,51,5.70
2009,03,27,22,52,5.70
2009,03,27,22,53,5.70
2009,03,27,22,54,5.70
2009,03,27,22,55,5.70
2009,03,27,22,56,5.70
2009,03,27,22,57,5.70
2009,03,27,22,58,5.70
2009,03,27,22,59,5.70
2009,03,27,23,00,5.70
2009,03,27,23,01,5.70
2009,03,27,23,02,5.70
2009,03,27,23,03,5.70
2009,03,27,23,04,5.70
2009,03,27,23,05,5.70
2009,03,27,23,06,5.60
2009,03,27,23,07,5.60
2009,03,27,23,08,5.60
2009,03,27,23,09,5.60
2009,03,27,23,10,5.60
2009,03,27,23,11,5.60
2009,03,27,23,12,5.60
2009,03,27,23,13,5.60
2009,03,27,23,14,5.60
2009,03,27,23,15,5.60
2009,03,27,23,16,5.60
2009,03,27,23,17,5.60
2009,03,27,23,18,5.50
2009,03,27,23,19,5.50
2009,03,27,23,20,5.50
2009,03,27,23,21,5.50
2009,03,27,23,22,5.40
2009,03,27,23,23,5.40
2009,03,27,23,24,5.40
2009,03,27,23,25,5.40
2009,03,27,23,26,5.40
2009,03,27,23,27,5.40
2009,03,27,23,28,5.40
2009,03,27,23,29,5.40
2009,03,27,23,30,5.40
2009,03,27,23,31,5.40
2009,03,27,23,32,5.40
2009,03,27,23,33,5.30
2009,03,27,23,34,5.30
2009,03,27,23,35,5.30
2009,03,27,23,36,5.30
2009,03,27,23,37,5.30
2009,03,27,23,38,5.30
2009,03,27,23,39,5.30
2009,03,27,23,40,5.20
2009,03,27,23,41,5.20
2009,03,27,23,42,5.20
2009,03,27,23,43,5.20
2009,03,27,23,44,5.20
2009,03,27,23,45,5.20
2009,03,27,23,46,5.20
2009,03,27,23,47,5.20
2009,03,27,23,48,5.20
2009,03,27,23,49,5.20
2009,03,27,23,50,5.20
2009,03,27,23,51,5.20
2009,03,27,23,52,5.20
2009,03,27,23,53,5.20
2009,03,27,23,54,5.20
2009,03,27,23,55,5.20
2009,03,27,23,56,5.20
2009,03,27,23,57,5.20
2009,03,27,23,58,5.20
2009,03,27,23,59,5.20
